Location: Asheville, NC
(35.6000°N, 82.5500°W)
Time: 10:38:10
(UTC-04:00)

Vanguard 3 - Pass Details

Date: 13 March 2018
Orbit: 508 x 3264 km, 33.3° (Epoch: 18 June)

Event Time Altitude Azimuth Distance (km) Brightness Sun altitude
Rises 16:36:54 0° 280° (W) 5,316 11.9 33.6°
Reaches altitude 10° 16:42:06 10° 267° (W) 3,739 11.6 32.7°
Maximum altitude 16:48:05 20° 225° (SW) 2,393 11.4 31.7°
Drops below altitude 10° 16:52:23 10° 180° (S) 2,542 10.2 30.9°
Sets 16:55:07 0° 162° (SSE) 3,181 10.3 30.5°
